owner,sensor,date,latitude,longitude,air_pressure(mBar),qcFlag 
COMPS,ioos:station:USF.COMPS:C10:1,2014-04-01T00:05:00Z,27.1690,-82.9260,1019.67,1111122 
COMPS,ioos:station:USF.COMPS:C10:1,2014-04-01T00:35:00Z,27.1690,-82.9260,1019.69,1111122 
COMPS,ioos:station:USF.COMPS:C10:1,2014-04-01T01:05:00Z,27.1690,-82.9260,1019.99,1111122 
COMPS,ioos:station:USF.COMPS:C10:1,2014-04-01T01:35:00Z,27.1690,-82.9260,1020.11,1111122 
COMPS,ioos:station:USF.COMPS:C10:1,2014-04-01T02:05:00Z,27.1690,-82.9260,1020.24,1111122 
COMPS,ioos:station:USF.COMPS:C10:1,2014-04-01T02:35:00Z,27.1690,-82.9260,1020.45,1111122 
COMPS,ioos:station:USF.COMPS:C10:1,2014-04-01T03:05:00Z,27.1690,-82.9260,1020.67,1111122 
COMPS,ioos:station:USF.COMPS:C10:1,2014-04-01T03:35:00Z,27.1690,-82.9260,1020.6,1111122 
COMPS,ioos:station:USF.COMPS:C10:1,2014-04-01T04:05:00Z,27.1690,-82.9260,1020.73,1111122 
COMPS,ioos:station:USF.COMPS:C10:1,2014-04-01T04:35:00Z,27.1690,-82.9260,1020.69,1111122 
COMPS,ioos:station:USF.COMPS:C10:1,2014-04-01T05:05:00Z,27.1690,-82.9260,1020.61,1111122 
COMPS,ioos:station:USF.COMPS:C10:1,2014-04-01T05:35:00Z,27.1690,-82.9260,1020.43,1111122 
COMPS,ioos:station:USF.COMPS:C10:1,2014-04-01T06:05:00Z,27.1690,-82.9260,1020.12,1111122 
COMPS,ioos:station:USF.COMPS:C10:1,2014-04-01T06:35:00Z,27.1690,-82.9260,1019.97,1111122 
COMPS,ioos:station:USF.COMPS:C10:1,2014-04-01T07:05:00Z,27.1690,-82.9260,1019.76,1111122 
COMPS,ioos:station:USF.COMPS:C10:1,2014-04-01T07:35:00Z,27.1690,-82.9260,1019.42,1111122 
COMPS,ioos:station:USF.COMPS:C10:1,2014-04-01T08:05:00Z,27.1690,-82.9260,1019.21,1111122 
COMPS,ioos:station:USF.COMPS:C10:1,2014-04-01T08:35:00Z,27.1690,-82.9260,1019.02,1111122 
COMPS,ioos:station:USF.COMPS:C10:1,2014-04-01T09:05:00Z,27.1690,-82.9260,1019.33,1111122 
COMPS,ioos:station:USF.COMPS:C10:1,2014-04-01T09:35:00Z,27.1690,-82.9260,1019.3,1111122 
COMPS,ioos:station:USF.COMPS:C10:1,2014-04-01T10:05:00Z,27.1690,-82.9260,1019.33,1111122 
COMPS,ioos:station:USF.COMPS:C10:1,2014-04-01T10:35:00Z,27.1690,-82.9260,1019.53,1111122 
COMPS,ioos:station:USF.COMPS:C10:1,2014-04-01T11:05:00Z,27.1690,-82.9260,1019.76,1111122 
COMPS,ioos:station:USF.COMPS:C10:1,2014-04-01T11:35:00Z,27.1690,-82.9260,1020.16,1111122 
COMPS,ioos:station:USF.COMPS:C10:1,2014-04-01T12:05:00Z,27.1690,-82.9260,1020.33,1111122 
COMPS,ioos:station:USF.COMPS:C10:1,2014-04-01T12:35:00Z,27.1690,-82.9260,1020.58,1111122 
COMPS,ioos:station:USF.COMPS:C10:1,2014-04-01T13:05:00Z,27.1690,-82.9260,1021.0,1111122 
COMPS,ioos:station:USF.COMPS:C10:1,2014-04-01T13:35:00Z,27.1690,-82.9260,1021.37,1111122 
COMPS,ioos:station:USF.COMPS:C10:1,2014-04-01T14:05:00Z,27.1690,-82.9260,1021.61,1111122 
COMPS,ioos:station:USF.COMPS:C10:1,2014-04-01T14:35:00Z,27.1690,-82.9260,1021.78,1111122 
COMPS,ioos:station:USF.COMPS:C10:1,2014-04-01T15:05:00Z,27.1690,-82.9260,1021.94,1111122 
COMPS,ioos:station:USF.COMPS:C10:1,2014-04-01T15:35:00Z,27.1690,-82.9260,1022.1,1111122 
COMPS,ioos:station:USF.COMPS:C10:1,2014-04-01T16:05:00Z,27.1690,-82.9260,1022.13,1111122 
COMPS,ioos:station:USF.COMPS:C10:1,2014-04-01T16:35:00Z,27.1690,-82.9260,1021.92,1111122 
COMPS,ioos:station:USF.COMPS:C10:1,2014-04-01T17:05:00Z,27.1690,-82.9260,1021.97,1111122 
COMPS,ioos:station:USF.COMPS:C10:1,2014-04-01T17:35:00Z,27.1690,-82.9260,1022.08,1111122 
COMPS,ioos:station:USF.COMPS:C10:1,2014-04-01T18:05:00Z,27.1690,-82.9260,1021.78,1111122 
COMPS,ioos:station:USF.COMPS:C10:1,2014-04-01T18:35:00Z,27.1690,-82.9260,1021.45,1111122 
COMPS,ioos:station:USF.COMPS:C10:1,2014-04-01T19:05:00Z,27.1690,-82.9260,1021.07,1111122 
COMPS,ioos:station:USF.COMPS:C10:1,2014-04-01T19:35:00Z,27.1690,-82.9260,1020.91,1111122 
COMPS,ioos:station:USF.COMPS:C10:1,2014-04-01T20:05:00Z,27.1690,-82.9260,1020.66,1111122 
COMPS,ioos:station:USF.COMPS:C10:1,2014-04-01T20:35:00Z,27.1690,-82.9260,1020.56,1111122 
COMPS,ioos:station:USF.COMPS:C10:1,2014-04-01T21:05:00Z,27.1690,-82.9260,1020.29,1111122 
COMPS,ioos:station:USF.COMPS:C10:1,2014-04-01T21:35:00Z,27.1690,-82.9260,1020.31,1111122 
COMPS,ioos:station:USF.COMPS:C10:1,2014-04-01T22:05:00Z,27.1690,-82.9260,1020.13,1111122 
COMPS,ioos:station:USF.COMPS:C10:1,2014-04-01T22:35:00Z,27.1690,-82.9260,1020.17,1111122 
COMPS,ioos:station:USF.COMPS:C10:1,2014-04-01T23:05:00Z,27.1690,-82.9260,1020.08,1111122 
COMPS,ioos:station:USF.COMPS:C10:1,2014-04-01T23:35:00Z,27.1690,-82.9260,1020.24,1111122 
COMPS,ioos:station:USF.COMPS:C10:1,2014-04-02T00:05:00Z,27.1690,-82.9260,1020.25,1111122 
COMPS,ioos:station:USF.COMPS:C10:1,2014-04-02T00:35:00Z,27.1690,-82.9260,1020.25,1111122 
COMPS,ioos:station:USF.COMPS:C10:1,2014-04-02T01:05:00Z,27.1690,-82.9260,1020.49,1111122 
COMPS,ioos:station:USF.COMPS:C10:1,2014-04-02T01:35:00Z,27.1690,-82.9260,1020.58,1111122 
COMPS,ioos:station:USF.COMPS:C10:1,2014-04-02T02:05:00Z,27.1690,-82.9260,1020.87,1111122 
COMPS,ioos:station:USF.COMPS:C10:1,2014-04-02T02:35:00Z,27.1690,-82.9260,1021.06,1111122 
COMPS,ioos:station:USF.COMPS:C10:1,2014-04-02T03:05:00Z,27.1690,-82.9260,1021.23,1111122 
COMPS,ioos:station:USF.COMPS:C10:1,2014-04-02T03:35:00Z,27.1690,-82.9260,1021.28,1111122 
COMPS,ioos:station:USF.COMPS:C10:1,2014-04-02T04:05:00Z,27.1690,-82.9260,1021.19,1111122 
COMPS,ioos:station:USF.COMPS:C10:1,2014-04-02T04:35:00Z,27.1690,-82.9260,1021.21,1111122 
COMPS,ioos:station:USF.COMPS:C10:1,2014-04-02T05:05:00Z,27.1690,-82.9260,1021.19,1111122 
COMPS,ioos:station:USF.COMPS:C10:1,2014-04-02T05:35:00Z,27.1690,-82.9260,1020.84,1111122 
COMPS,ioos:station:USF.COMPS:C10:1,2014-04-02T06:05:00Z,27.1690,-82.9260,1020.49,1111122 
COMPS,ioos:station:USF.COMPS:C10:1,2014-04-02T06:35:00Z,27.1690,-82.9260,1020.23,1111122 
COMPS,ioos:station:USF.COMPS:C10:1,2014-04-02T07:05:00Z,27.1690,-82.9260,1019.88,1111122 
COMPS,ioos:station:USF.COMPS:C10:1,2014-04-02T07:35:00Z,27.1690,-82.9260,1019.65,1111122 
COMPS,ioos:station:USF.COMPS:C10:1,2014-04-02T08:05:00Z,27.1690,-82.9260,1019.64,1111122 
COMPS,ioos:station:USF.COMPS:C10:1,2014-04-02T08:35:00Z,27.1690,-82.9260,1019.64,1111122 
COMPS,ioos:station:USF.COMPS:C10:1,2014-04-02T09:05:00Z,27.1690,-82.9260,1019.83,1111122 
COMPS,ioos:station:USF.COMPS:C10:1,2014-04-02T09:35:00Z,27.1690,-82.9260,1019.95,1111122 
COMPS,ioos:station:USF.COMPS:C10:1,2014-04-02T10:05:00Z,27.1690,-82.9260,1020.23,1111122 
COMPS,ioos:station:USF.COMPS:C10:1,2014-04-02T10:35:00Z,27.1690,-82.9260,1020.46,1111122 
COMPS,ioos:station:USF.COMPS:C10:1,2014-04-02T11:05:00Z,27.1690,-82.9260,1020.67,1111122 
COMPS,ioos:station:USF.COMPS:C10:1,2014-04-02T11:35:00Z,27.1690,-82.9260,1020.72,1111122 
COMPS,ioos:station:USF.COMPS:C10:1,2014-04-02T12:05:00Z,27.1690,-82.9260,1020.97,1111122 
COMPS,ioos:station:USF.COMPS:C10:1,2014-04-02T12:35:00Z,27.1690,-82.9260,1021.35,1111122 
COMPS,ioos:station:USF.COMPS:C10:1,2014-04-02T13:05:00Z,27.1690,-82.9260,1021.7,1111122 
COMPS,ioos:station:USF.COMPS:C10:1,2014-04-02T13:35:00Z,27.1690,-82.9260,1021.95,1111122 
COMPS,ioos:station:USF.COMPS:C10:1,2014-04-02T14:05:00Z,27.1690,-82.9260,1022.12,1111122 
COMPS,ioos:station:USF.COMPS:C10:1,2014-04-02T14:35:00Z,27.1690,-82.9260,1022.38,1111122 
COMPS,ioos:station:USF.COMPS:C10:1,2014-04-02T15:05:00Z,27.1690,-82.9260,1022.66,1111122 
COMPS,ioos:station:USF.COMPS:C10:1,2014-04-02T15:35:00Z,27.1690,-82.9260,1022.5,1111122 
COMPS,ioos:station:USF.COMPS:C10:1,2014-04-02T16:05:00Z,27.1690,-82.9260,1022.36,1111122 
COMPS,ioos:station:USF.COMPS:C10:1,2014-04-02T16:35:00Z,27.1690,-82.9260,1022.29,1111122 
COMPS,ioos:station:USF.COMPS:C10:1,2014-04-02T17:05:00Z,27.1690,-82.9260,1022.19,1111122 
COMPS,ioos:station:USF.COMPS:C10:1,2014-04-02T17:35:00Z,27.1690,-82.9260,1022.06,1111122 
COMPS,ioos:station:USF.COMPS:C10:1,2014-04-02T18:05:00Z,27.1690,-82.9260,1021.74,1111122 
COMPS,ioos:station:USF.COMPS:C10:1,2014-04-02T18:35:00Z,27.1690,-82.9260,1021.34,1111122 
COMPS,ioos:station:USF.COMPS:C10:1,2014-04-02T19:05:00Z,27.1690,-82.9260,1020.85,1111122 
COMPS,ioos:station:USF.COMPS:C10:1,2014-04-02T19:35:00Z,27.1690,-82.9260,1020.48,1111122 
COMPS,ioos:station:USF.COMPS:C10:1,2014-04-02T20:05:00Z,27.1690,-82.9260,1020.39,1111122 
COMPS,ioos:station:USF.COMPS:C10:1,2014-04-02T20:35:00Z,27.1690,-82.9260,1020.11,1111122 
COMPS,ioos:station:USF.COMPS:C10:1,2014-04-02T21:05:00Z,27.1690,-82.9260,1019.81,1111122 
COMPS,ioos:station:USF.COMPS:C10:1,2014-04-02T21:35:00Z,27.1690,-82.9260,1019.75,1111122 
COMPS,ioos:station:USF.COMPS:C10:1,2014-04-02T22:05:00Z,27.1690,-82.9260,1019.76,1111122 
COMPS,ioos:station:USF.COMPS:C10:1,2014-04-02T22:35:00Z,27.1690,-82.9260,1019.88,1111122 
COMPS,ioos:station:USF.COMPS:C10:1,2014-04-02T23:05:00Z,27.1690,-82.9260,1020.05,1111122 
COMPS,ioos:station:USF.COMPS:C10:1,2014-04-02T23:35:00Z,27.1690,-82.9260,1020.19,1111122 
COMPS,ioos:station:USF.COMPS:C10:1,2014-04-03T00:05:00Z,27.1690,-82.9260,1020.21,1111122 
COMPS,ioos:station:USF.COMPS:C10:1,2014-04-03T00:35:00Z,27.1690,-82.9260,1020.36,1111122 
COMPS,ioos:station:USF.COMPS:C10:1,2014-04-03T01:05:00Z,27.1690,-82.9260,1020.5,1111122 
COMPS,ioos:station:USF.COMPS:C10:1,2014-04-03T01:35:00Z,27.1690,-82.9260,1020.8,1111122 
COMPS,ioos:station:USF.COMPS:C10:1,2014-04-03T02:05:00Z,27.1690,-82.9260,1020.91,1111122 
COMPS,ioos:station:USF.COMPS:C10:1,2014-04-03T02:35:00Z,27.1690,-82.9260,1021.0,1111122 
COMPS,ioos:station:USF.COMPS:C10:1,2014-04-03T03:05:00Z,27.1690,-82.9260,1020.93,1111122 
COMPS,ioos:station:USF.COMPS:C10:1,2014-04-03T03:35:00Z,27.1690,-82.9260,1020.82,1111122 
COMPS,ioos:station:USF.COMPS:C10:1,2014-04-03T04:05:00Z,27.1690,-82.9260,1020.91,1111122 
COMPS,ioos:station:USF.COMPS:C10:1,2014-04-03T04:35:00Z,27.1690,-82.9260,1020.78,1111122 
COMPS,ioos:station:USF.COMPS:C10:1,2014-04-03T05:05:00Z,27.1690,-82.9260,1020.67,1111122 
COMPS,ioos:station:USF.COMPS:C10:1,2014-04-03T05:35:00Z,27.1690,-82.9260,1020.47,1111122 
COMPS,ioos:station:USF.COMPS:C10:1,2014-04-03T06:05:00Z,27.1690,-82.9260,1020.12,1111122 
COMPS,ioos:station:USF.COMPS:C10:1,2014-04-03T06:35:00Z,27.1690,-82.9260,1019.83,1111122 
COMPS,ioos:station:USF.COMPS:C10:1,2014-04-03T07:05:00Z,27.1690,-82.9260,1019.46,1111122 
COMPS,ioos:station:USF.COMPS:C10:1,2014-04-03T07:35:00Z,27.1690,-82.9260,1019.3,1111122 
COMPS,ioos:station:USF.COMPS:C10:1,2014-04-03T08:05:00Z,27.1690,-82.9260,1019.02,1111122 
COMPS,ioos:station:USF.COMPS:C10:1,2014-04-03T08:35:00Z,27.1690,-82.9260,1018.83,1111122 
COMPS,ioos:station:USF.COMPS:C10:1,2014-04-03T09:05:00Z,27.1690,-82.9260,1018.79,1111122 
COMPS,ioos:station:USF.COMPS:C10:1,2014-04-03T09:35:00Z,27.1690,-82.9260,1018.9,1111122 
COMPS,ioos:station:USF.COMPS:C10:1,2014-04-03T10:05:00Z,27.1690,-82.9260,1019.35,1111122 
COMPS,ioos:station:USF.COMPS:C10:1,2014-04-03T10:35:00Z,27.1690,-82.9260,1019.29,1111122 
COMPS,ioos:station:USF.COMPS:C10:1,2014-04-03T11:05:00Z,27.1690,-82.9260,1019.34,1111122 
COMPS,ioos:station:USF.COMPS:C10:1,2014-04-03T11:35:00Z,27.1690,-82.9260,1019.53,1111122 
COMPS,ioos:station:USF.COMPS:C10:1,2014-04-03T12:05:00Z,27.1690,-82.9260,1019.96,1111122 
COMPS,ioos:station:USF.COMPS:C10:1,2014-04-03T12:35:00Z,27.1690,-82.9260,1020.1,1111122 
COMPS,ioos:station:USF.COMPS:C10:1,2014-04-03T13:05:00Z,27.1690,-82.9260,1020.4,1111122 
COMPS,ioos:station:USF.COMPS:C10:1,2014-04-03T13:35:00Z,27.1690,-82.9260,1020.66,1111122 
COMPS,ioos:station:USF.COMPS:C10:1,2014-04-03T14:05:00Z,27.1690,-82.9260,1020.85,1111122 
COMPS,ioos:station:USF.COMPS:C10:1,2014-04-03T14:35:00Z,27.1690,-82.9260,1020.7,1111122 
COMPS,ioos:station:USF.COMPS:C10:1,2014-04-03T15:05:00Z,27.1690,-82.9260,1020.71,1111122 
COMPS,ioos:station:USF.COMPS:C10:1,2014-04-03T15:35:00Z,27.1690,-82.9260,1020.64,1111122 
COMPS,ioos:station:USF.COMPS:C10:1,2014-04-03T16:05:00Z,27.1690,-82.9260,1020.46,1111122 
COMPS,ioos:station:USF.COMPS:C10:1,2014-04-03T16:35:00Z,27.1690,-82.9260,1020.35,1111122 
COMPS,ioos:station:USF.COMPS:C10:1,2014-04-03T17:05:00Z,27.1690,-82.9260,1020.06,1111122 
COMPS,ioos:station:USF.COMPS:C10:1,2014-04-03T17:35:00Z,27.1690,-82.9260,1019.96,1111122 
COMPS,ioos:station:USF.COMPS:C10:1,2014-04-03T18:05:00Z,27.1690,-82.9260,1019.76,1111122 
COMPS,ioos:station:USF.COMPS:C10:1,2014-04-03T18:35:00Z,27.1690,-82.9260,1019.65,1111122 
COMPS,ioos:station:USF.COMPS:C10:1,2014-04-03T19:05:00Z,27.1690,-82.9260,1019.4,1111122 
COMPS,ioos:station:USF.COMPS:C10:1,2014-04-03T19:35:00Z,27.1690,-82.9260,1018.88,1111122 
COMPS,ioos:station:USF.COMPS:C10:1,2014-04-03T20:05:00Z,27.1690,-82.9260,1018.59,1111122 
COMPS,ioos:station:USF.COMPS:C10:1,2014-04-03T20:35:00Z,27.1690,-82.9260,1018.38,1111122 
COMPS,ioos:station:USF.COMPS:C10:1,2014-04-03T21:05:00Z,27.1690,-82.9260,1018.06,1111122 
COMPS,ioos:station:USF.COMPS:C10:1,2014-04-03T21:35:00Z,27.1690,-82.9260,1017.83,1111122 
COMPS,ioos:station:USF.COMPS:C10:1,2014-04-03T22:05:00Z,27.1690,-82.9260,1017.71,1111122 
COMPS,ioos:station:USF.COMPS:C10:1,2014-04-03T22:35:00Z,27.1690,-82.9260,1017.39,1111122 
COMPS,ioos:station:USF.COMPS:C10:1,2014-04-03T23:05:00Z,27.1690,-82.9260,1017.35,1111122 
COMPS,ioos:station:USF.COMPS:C10:1,2014-04-03T23:35:00Z,27.1690,-82.9260,1017.5,1111122 
COMPS,ioos:station:USF.COMPS:C10:1,2014-04-04T00:05:00Z,27.1690,-82.9260,1017.4,1111122 
COMPS,ioos:station:USF.COMPS:C10:1,2014-04-04T00:35:00Z,27.1690,-82.9260,1017.43,1111122 
COMPS,ioos:station:USF.COMPS:C10:1,2014-04-04T01:05:00Z,27.1690,-82.9260,1017.81,1111122 
COMPS,ioos:station:USF.COMPS:C10:1,2014-04-04T01:35:00Z,27.1690,-82.9260,1017.97,1111122 
COMPS,ioos:station:USF.COMPS:C10:1,2014-04-04T02:05:00Z,27.1690,-82.9260,1018.09,1111122 
COMPS,ioos:station:USF.COMPS:C10:1,2014-04-04T02:35:00Z,27.1690,-82.9260,1018.22,1111122 
COMPS,ioos:station:USF.COMPS:C10:1,2014-04-04T03:05:00Z,27.1690,-82.9260,1018.45,1111122 
COMPS,ioos:station:USF.COMPS:C10:1,2014-04-04T03:35:00Z,27.1690,-82.9260,1018.6,1111122 
COMPS,ioos:station:USF.COMPS:C10:1,2014-04-04T04:05:00Z,27.1690,-82.9260,1018.43,1111122 
COMPS,ioos:station:USF.COMPS:C10:1,2014-04-04T04:35:00Z,27.1690,-82.9260,1018.22,1111122 
COMPS,ioos:station:USF.COMPS:C10:1,2014-04-04T05:05:00Z,27.1690,-82.9260,1017.72,1111122 
COMPS,ioos:station:USF.COMPS:C10:1,2014-04-04T05:35:00Z,27.1690,-82.9260,1017.27,1111122 
COMPS,ioos:station:USF.COMPS:C10:1,2014-04-04T06:05:00Z,27.1690,-82.9260,1016.9,1111122 
COMPS,ioos:station:USF.COMPS:C10:1,2014-04-04T06:35:00Z,27.1690,-82.9260,1016.93,1111122 
COMPS,ioos:station:USF.COMPS:C10:1,2014-04-04T07:05:00Z,27.1690,-82.9260,1016.63,1111122 
COMPS,ioos:station:USF.COMPS:C10:1,2014-04-04T07:35:00Z,27.1690,-82.9260,1016.5,1111122 
COMPS,ioos:station:USF.COMPS:C10:1,2014-04-04T08:05:00Z,27.1690,-82.9260,1016.24,1111122 
COMPS,ioos:station:USF.COMPS:C10:1,2014-04-04T08:35:00Z,27.1690,-82.9260,1016.12,1111122 
COMPS,ioos:station:USF.COMPS:C10:1,2014-04-04T09:05:00Z,27.1690,-82.9260,1016.04,1111122 
COMPS,ioos:station:USF.COMPS:C10:1,2014-04-04T09:35:00Z,27.1690,-82.9260,1016.26,1111122 
COMPS,ioos:station:USF.COMPS:C10:1,2014-04-04T10:05:00Z,27.1690,-82.9260,1016.28,1111122 
COMPS,ioos:station:USF.COMPS:C10:1,2014-04-04T10:35:00Z,27.1690,-82.9260,1016.19,1111122 
COMPS,ioos:station:USF.COMPS:C10:1,2014-04-04T11:05:00Z,27.1690,-82.9260,1016.5,1111122 
COMPS,ioos:station:USF.COMPS:C10:1,2014-04-04T11:35:00Z,27.1690,-82.9260,1016.68,1111122 
COMPS,ioos:station:USF.COMPS:C10:1,2014-04-04T12:05:00Z,27.1690,-82.9260,1016.92,1111122 
COMPS,ioos:station:USF.COMPS:C10:1,2014-04-04T12:35:00Z,27.1690,-82.9260,1016.89,1111122 
COMPS,ioos:station:USF.COMPS:C10:1,2014-04-04T13:05:00Z,27.1690,-82.9260,1016.91,1111122 
COMPS,ioos:station:USF.COMPS:C10:1,2014-04-04T13:35:00Z,27.1690,-82.9260,1017.07,1111122 
COMPS,ioos:station:USF.COMPS:C10:1,2014-04-04T14:05:00Z,27.1690,-82.9260,1017.01,1111122 
COMPS,ioos:station:USF.COMPS:C10:1,2014-04-04T14:35:00Z,27.1690,-82.9260,1017.16,1111122 
COMPS,ioos:station:USF.COMPS:C10:1,2014-04-04T15:05:00Z,27.1690,-82.9260,1017.46,1111122 
COMPS,ioos:station:USF.COMPS:C10:1,2014-04-04T15:35:00Z,27.1690,-82.9260,1017.64,1111122 
COMPS,ioos:station:USF.COMPS:C10:1,2014-04-04T16:05:00Z,27.1690,-82.9260,1017.79,1111122 
COMPS,ioos:station:USF.COMPS:C10:1,2014-04-04T16:35:00Z,27.1690,-82.9260,1017.64,1111122 
COMPS,ioos:station:USF.COMPS:C10:1,2014-04-04T17:05:00Z,27.1690,-82.9260,1017.93,1111122 
COMPS,ioos:station:USF.COMPS:C10:1,2014-04-04T17:35:00Z,27.1690,-82.9260,1018.15,1111122 
COMPS,ioos:station:USF.COMPS:C10:1,2014-04-04T18:05:00Z,27.1690,-82.9260,1018.11,1111122 
COMPS,ioos:station:USF.COMPS:C10:1,2014-04-04T18:35:00Z,27.1690,-82.9260,1017.92,1111122 
COMPS,ioos:station:USF.COMPS:C10:1,2014-04-04T19:05:00Z,27.1690,-82.9260,1017.5,1111122 
COMPS,ioos:station:USF.COMPS:C10:1,2014-04-04T19:35:00Z,27.1690,-82.9260,1017.26,1111122 
COMPS,ioos:station:USF.COMPS:C10:1,2014-04-04T20:05:00Z,27.1690,-82.9260,1017.16,1111122 
COMPS,ioos:station:USF.COMPS:C10:1,2014-04-04T20:35:00Z,27.1690,-82.9260,1017.0,1111122 
COMPS,ioos:station:USF.COMPS:C10:1,2014-04-04T21:05:00Z,27.1690,-82.9260,1016.94,1111122 
COMPS,ioos:station:USF.COMPS:C10:1,2014-04-04T21:35:00Z,27.1690,-82.9260,1016.77,1111122 
COMPS,ioos:station:USF.COMPS:C10:1,2014-04-04T22:05:00Z,27.1690,-82.9260,1016.6,1111122 
COMPS,ioos:station:USF.COMPS:C10:1,2014-04-04T22:35:00Z,27.1690,-82.9260,1016.5,1111122 
COMPS,ioos:station:USF.COMPS:C10:1,2014-04-04T23:05:00Z,27.1690,-82.9260,1016.64,1111122 
COMPS,ioos:station:USF.COMPS:C10:1,2014-04-04T23:35:00Z,27.1690,-82.9260,1016.77,1111122 
COMPS,ioos:station:USF.COMPS:C10:1,2014-04-05T00:05:00Z,27.1690,-82.9260,1016.9,1111122 
COMPS,ioos:station:USF.COMPS:C10:1,2014-04-05T00:35:00Z,27.1690,-82.9260,1016.95,1111122 
COMPS,ioos:station:USF.COMPS:C10:1,2014-04-05T01:05:00Z,27.1690,-82.9260,1017.14,1111122 
COMPS,ioos:station:USF.COMPS:C10:1,2014-04-05T01:35:00Z,27.1690,-82.9260,1017.28,1111122 
COMPS,ioos:station:USF.COMPS:C10:1,2014-04-05T02:05:00Z,27.1690,-82.9260,1017.49,1111122 
COMPS,ioos:station:USF.COMPS:C10:1,2014-04-05T02:35:00Z,27.1690,-82.9260,1017.29,1111122 
COMPS,ioos:station:USF.COMPS:C10:1,2014-04-05T03:05:00Z,27.1690,-82.9260,1017.14,1111122 
COMPS,ioos:station:USF.COMPS:C10:1,2014-04-05T03:35:00Z,27.1690,-82.9260,1016.98,1111122 
COMPS,ioos:station:USF.COMPS:C10:1,2014-04-05T04:05:00Z,27.1690,-82.9260,1016.85,1111122 
COMPS,ioos:station:USF.COMPS:C10:1,2014-04-05T04:35:00Z,27.1690,-82.9260,1016.61,1111122 
COMPS,ioos:station:USF.COMPS:C10:1,2014-04-05T05:05:00Z,27.1690,-82.9260,1016.08,1111122 
COMPS,ioos:station:USF.COMPS:C10:1,2014-04-05T05:35:00Z,27.1690,-82.9260,1015.77,1111122 
COMPS,ioos:station:USF.COMPS:C10:1,2014-04-05T06:05:00Z,27.1690,-82.9260,1015.22,1111122 
COMPS,ioos:station:USF.COMPS:C10:1,2014-04-05T06:35:00Z,27.1690,-82.9260,1014.81,1111122 
COMPS,ioos:station:USF.COMPS:C10:1,2014-04-05T07:05:00Z,27.1690,-82.9260,1015.19,1111122 
COMPS,ioos:station:USF.COMPS:C10:1,2014-04-05T07:35:00Z,27.1690,-82.9260,1015.0,1111122 
COMPS,ioos:station:USF.COMPS:C10:1,2014-04-05T08:05:00Z,27.1690,-82.9260,1015.04,1111122 
COMPS,ioos:station:USF.COMPS:C10:1,2014-04-05T08:35:00Z,27.1690,-82.9260,1015.09,1111122 
COMPS,ioos:station:USF.COMPS:C10:1,2014-04-05T09:05:00Z,27.1690,-82.9260,1015.12,1111122 
COMPS,ioos:station:USF.COMPS:C10:1,2014-04-05T09:35:00Z,27.1690,-82.9260,1015.47,1111122 
COMPS,ioos:station:USF.COMPS:C10:1,2014-04-05T10:05:00Z,27.1690,-82.9260,1015.97,1111122 
COMPS,ioos:station:USF.COMPS:C10:1,2014-04-05T10:35:00Z,27.1690,-82.9260,1016.2,1111122 
COMPS,ioos:station:USF.COMPS:C10:1,2014-04-05T11:05:00Z,27.1690,-82.9260,1016.2,1111122 
COMPS,ioos:station:USF.COMPS:C10:1,2014-04-05T11:35:00Z,27.1690,-82.9260,1016.1,1111122 
COMPS,ioos:station:USF.COMPS:C10:1,2014-04-05T12:05:00Z,27.1690,-82.9260,1016.49,1111122 
COMPS,ioos:station:USF.COMPS:C10:1,2014-04-05T12:35:00Z,27.1690,-82.9260,1016.8,1111122 
COMPS,ioos:station:USF.COMPS:C10:1,2014-04-05T13:05:00Z,27.1690,-82.9260,1016.82,1111122 
COMPS,ioos:station:USF.COMPS:C10:1,2014-04-05T13:35:00Z,27.1690,-82.9260,1017.16,1111122 
COMPS,ioos:station:USF.COMPS:C10:1,2014-04-05T14:05:00Z,27.1690,-82.9260,1017.62,1111122 
COMPS,ioos:station:USF.COMPS:C10:1,2014-04-05T14:35:00Z,27.1690,-82.9260,1017.83,1111122 
COMPS,ioos:station:USF.COMPS:C10:1,2014-04-05T15:05:00Z,27.1690,-82.9260,1018.13,1111122 
COMPS,ioos:station:USF.COMPS:C10:1,2014-04-05T15:35:00Z,27.1690,-82.9260,1018.04,1111122 
COMPS,ioos:station:USF.COMPS:C10:1,2014-04-05T16:05:00Z,27.1690,-82.9260,1018.17,1111122 
COMPS,ioos:station:USF.COMPS:C10:1,2014-04-05T16:35:00Z,27.1690,-82.9260,1017.91,1111122 
COMPS,ioos:station:USF.COMPS:C10:1,2014-04-05T17:05:00Z,27.1690,-82.9260,1017.97,1111122 
COMPS,ioos:station:USF.COMPS:C10:1,2014-04-05T17:35:00Z,27.1690,-82.9260,1017.8,1111122 
COMPS,ioos:station:USF.COMPS:C10:1,2014-04-05T18:05:00Z,27.1690,-82.9260,1017.97,1111122 
COMPS,ioos:station:USF.COMPS:C10:1,2014-04-05T18:35:00Z,27.1690,-82.9260,1017.81,1111122 
COMPS,ioos:station:USF.COMPS:C10:1,2014-04-05T19:05:00Z,27.1690,-82.9260,1017.38,1111122 
COMPS,ioos:station:USF.COMPS:C10:1,2014-04-05T19:35:00Z,27.1690,-82.9260,1016.64,1111122 
COMPS,ioos:station:USF.COMPS:C10:1,2014-04-05T20:05:00Z,27.1690,-82.9260,1016.19,1111122 
COMPS,ioos:station:USF.COMPS:C10:1,2014-04-05T20:35:00Z,27.1690,-82.9260,1015.77,1111122 
COMPS,ioos:station:USF.COMPS:C10:1,2014-04-05T21:05:00Z,27.1690,-82.9260,1015.76,1111122 
COMPS,ioos:station:USF.COMPS:C10:1,2014-04-05T21:35:00Z,27.1690,-82.9260,1015.91,1111122 
COMPS,ioos:station:USF.COMPS:C10:1,2014-04-05T22:05:00Z,27.1690,-82.9260,1015.81,1111122 
COMPS,ioos:station:USF.COMPS:C10:1,2014-04-05T22:35:00Z,27.1690,-82.9260,1015.75,1111122 
COMPS,ioos:station:USF.COMPS:C10:1,2014-04-05T23:05:00Z,27.1690,-82.9260,1015.92,1111122 
COMPS,ioos:station:USF.COMPS:C10:1,2014-04-05T23:35:00Z,27.1690,-82.9260,1016.12,1111122 
COMPS,ioos:station:USF.COMPS:C10:1,2014-04-06T00:05:00Z,27.1690,-82.9260,1016.05,1111122 
COMPS,ioos:station:USF.COMPS:C10:1,2014-04-06T00:35:00Z,27.1690,-82.9260,1016.2,1111122 
COMPS,ioos:station:USF.COMPS:C10:1,2014-04-06T01:05:00Z,27.1690,-82.9260,1016.39,1111122 
COMPS,ioos:station:USF.COMPS:C10:1,2014-04-06T01:35:00Z,27.1690,-82.9260,1016.79,1111122 
COMPS,ioos:station:USF.COMPS:C10:1,2014-04-06T02:05:00Z,27.1690,-82.9260,1016.93,1111122 
COMPS,ioos:station:USF.COMPS:C10:1,2014-04-06T02:35:00Z,27.1690,-82.9260,1017.2,1111122 
COMPS,ioos:station:USF.COMPS:C10:1,2014-04-06T03:05:00Z,27.1690,-82.9260,1017.3,1111122 
COMPS,ioos:station:USF.COMPS:C10:1,2014-04-06T03:35:00Z,27.1690,-82.9260,1017.31,1111122 
COMPS,ioos:station:USF.COMPS:C10:1,2014-04-06T04:05:00Z,27.1690,-82.9260,1017.3,1111122 
COMPS,ioos:station:USF.COMPS:C10:1,2014-04-06T04:35:00Z,27.1690,-82.9260,1017.3,1111122 
COMPS,ioos:station:USF.COMPS:C10:1,2014-04-06T05:05:00Z,27.1690,-82.9260,1016.99,1111122 
COMPS,ioos:station:USF.COMPS:C10:1,2014-04-06T05:35:00Z,27.1690,-82.9260,1016.96,1111122 
COMPS,ioos:station:USF.COMPS:C10:1,2014-04-06T06:05:00Z,27.1690,-82.9260,1016.58,1111122 
COMPS,ioos:station:USF.COMPS:C10:1,2014-04-06T06:35:00Z,27.1690,-82.9260,1016.39,1111122 
COMPS,ioos:station:USF.COMPS:C10:1,2014-04-06T07:05:00Z,27.1690,-82.9260,1016.25,1111122 
COMPS,ioos:station:USF.COMPS:C10:1,2014-04-06T07:35:00Z,27.1690,-82.9260,1015.92,1111122 
COMPS,ioos:station:USF.COMPS:C10:1,2014-04-06T08:05:00Z,27.1690,-82.9260,1015.64,1111122 
COMPS,ioos:station:USF.COMPS:C10:1,2014-04-06T08:35:00Z,27.1690,-82.9260,1015.09,1111122 
COMPS,ioos:station:USF.COMPS:C10:1,2014-04-06T09:05:00Z,27.1690,-82.9260,1014.99,1111122 
COMPS,ioos:station:USF.COMPS:C10:1,2014-04-06T09:35:00Z,27.1690,-82.9260,1015.09,1111122 
COMPS,ioos:station:USF.COMPS:C10:1,2014-04-06T10:05:00Z,27.1690,-82.9260,1015.08,1111122 
COMPS,ioos:station:USF.COMPS:C10:1,2014-04-06T10:35:00Z,27.1690,-82.9260,1015.26,1111122 
COMPS,ioos:station:USF.COMPS:C10:1,2014-04-06T11:05:00Z,27.1690,-82.9260,1015.34,1111122 
COMPS,ioos:station:USF.COMPS:C10:1,2014-04-06T11:35:00Z,27.1690,-82.9260,1015.31,1111122 
COMPS,ioos:station:USF.COMPS:C10:1,2014-04-06T12:05:00Z,27.1690,-82.9260,1015.49,1111122 
COMPS,ioos:station:USF.COMPS:C10:1,2014-04-06T12:35:00Z,27.1690,-82.9260,1015.49,1111122 